Weather History for Oxford, NC

Change the Weather History Date:

Monday, October 7, 2013

  Actual Average (KTDF) Record (KTDF)
Temperature  
Mean Temperature 68 °F -  
Max Temperature 72 °F 73 °F 87 °F (1981)
Min Temperature 62 °F 47 °F 30 °F (1988)
Cooling Degree Days 2    
Growing Degree Days 18 (Base 50)    
Moisture  
Dew Point 66 °F    
Average Humidity 90    
Maximum Humidity 95    
Minimum Humidity 76    
Precipitation  
Precipitation 1.08 in - - ()
Sea Level Pressure  
Sea Level Pressure 29.92 in    
Wind  
Wind Speed 6 mph (SSW)    
Max Wind Speed 15 mph    
Max Gust Speed 24 mph    
Visibility 9 miles    
Events Rain    
Averages and records for this station are not official NWS values.
T = Trace of Precipitation, MM = Missing Value Source: NWS Daily Summary

Daily Weather History Graph

Daily Weather History Graph

Search for Another Location

Airport:

Trip Planner

Search our weather history database for the weather conditions in past years. The results will help you decide how hot, cold, wet, or windy it might be!

Date:

Astronomy

Oct. 07, 2013 Rise Set
Actual Time 7:14 AM EDT 6:48 PM EDT
Civil Twilight 6:48 AM EDT 7:14 PM EDT
Nautical Twilight 6:18 AM EDT 7:44 PM EDT
Astronomical Twilight 5:48 AM EDT 8:14 PM EDT
Moon 9:57 AM EDT (10/7) 8:37 PM EDT (10/7)
Length of Visible Light 12h 25m
Length of Day
11h 34m
Waxing Crescent, 8% of the Moon is Illuminated
Oct 7
Waxing Crescent
Oct 11
First Quarter
Oct 18
Full
Oct 26
Last Quarter
Nov 3
New

Hourly Weather History & Observations

Time (EDT) Temp. Dew Point Humidity Pressure Visibility Wind Dir Wind Speed Gust Speed Precip Events Conditions
12:15 AM 71.2 °F 67.5 °F 88% 29.96 in 10.0 mi South 6.9 mph - N/A   Overcast
12:35 AM 70.9 °F 67.5 °F 89% 29.95 in 10.0 mi South 4.6 mph - N/A   Mostly Cloudy
12:55 AM 71.1 °F 67.5 °F 88% 29.95 in 10.0 mi South 5.8 mph - N/A   Overcast
1:15 AM 71.1 °F 67.5 °F 88% 29.95 in 10.0 mi SSE 6.9 mph - N/A   Overcast
1:35 AM 71.1 °F 67.5 °F 88% 29.95 in 10.0 mi South 5.8 mph - N/A   Overcast
1:55 AM 71.1 °F 67.6 °F 89% 29.94 in 10.0 mi South 5.8 mph - N/A   Overcast
2:15 AM 71.1 °F 67.6 °F 89% 29.94 in 10.0 mi South 5.8 mph - N/A   Overcast
2:35 AM 70.9 °F 67.6 °F 89% 29.93 in 10.0 mi South 5.8 mph - N/A   Overcast
2:55 AM 70.9 °F 67.6 °F 89% 29.92 in 10.0 mi South 5.8 mph - N/A   Overcast
3:15 AM 70.7 °F 67.8 °F 91% 29.91 in 10.0 mi South 5.8 mph - N/A   Overcast
3:35 AM 70.9 °F 68.0 °F 91% 29.90 in 10.0 mi South 5.8 mph - N/A   Overcast
3:55 AM 70.9 °F 68.0 °F 91% 29.90 in 10.0 mi South 4.6 mph - N/A   Overcast
4:15 AM 71.1 °F 68.0 °F 90% 29.90 in 10.0 mi South 8.1 mph - N/A   Overcast
4:35 AM 71.2 °F 68.0 °F 89% 29.89 in 10.0 mi South 6.9 mph - N/A   Overcast
4:55 AM 71.2 °F 68.0 °F 89% 29.89 in 10.0 mi South 6.9 mph - N/A   Overcast
5:15 AM 71.6 °F 68.0 °F 88% 29.89 in 10.0 mi South 6.9 mph - N/A   Overcast
5:35 AM 71.6 °F 68.0 °F 88% 29.89 in 10.0 mi South 8.1 mph - N/A   Overcast
5:55 AM 71.2 °F 68.2 °F 90% 29.88 in 7.0 mi South 6.9 mph - N/A   Drizzle
6:15 AM 70.7 °F 68.4 °F 92% 29.88 in 10.0 mi South 6.9 mph - N/A   Overcast
6:35 AM 70.9 °F 68.9 °F 93% 29.87 in 10.0 mi South 5.8 mph - N/A   Overcast
6:55 AM 71.1 °F 68.9 °F 93% 29.87 in 10.0 mi South 9.2 mph - N/A   Overcast
7:15 AM 71.6 °F 69.1 °F 92% 29.87 in 10.0 mi South 9.2 mph 16.1 mph N/A   Overcast
7:35 AM 71.8 °F 69.3 °F 92% 29.87 in 10.0 mi South 9.2 mph - N/A   Overcast
7:55 AM 71.8 °F 69.3 °F 92% 29.87 in 7.0 mi South 8.1 mph 17.3 mph N/A   Light Drizzle
8:15 AM 71.8 °F 69.4 °F 92% 29.88 in 10.0 mi South 10.4 mph 16.1 mph N/A   Mostly Cloudy
8:35 AM 72.1 °F 69.8 °F 92% 29.88 in 7.0 mi South 11.5 mph 17.3 mph N/A Rain Light Rain
8:55 AM 72.5 °F 69.6 °F 91% 29.89 in 10.0 mi South 11.5 mph 18.4 mph N/A   Overcast
9:15 AM 72.5 °F 69.4 °F 90% 29.89 in 7.0 mi South 11.5 mph 19.6 mph N/A Rain Light Rain
9:35 AM 72.5 °F 69.8 °F 91% 29.89 in 10.0 mi South 11.5 mph - N/A   Overcast
9:55 AM 72.7 °F 69.8 °F 91% 29.89 in 10.0 mi South 9.2 mph - N/A   Overcast
10:15 AM 72.7 °F 69.8 °F 91% 29.89 in 7.0 mi South 10.4 mph 16.1 mph N/A Rain Light Rain
10:35 AM 72.7 °F 69.8 °F 91% 29.90 in 7.0 mi South 12.7 mph 20.7 mph N/A Rain Rain
10:55 AM 72.5 °F 69.8 °F 91% 29.90 in 7.0 mi SSW 10.4 mph - 0.01 in Rain Light Rain
11:15 AM 72.1 °F 70.0 °F 93% 29.91 in 4.0 mi SSW 10.4 mph - 0.06 in Rain Rain
11:35 AM 71.6 °F 68.4 °F 89% 29.91 in 5.0 mi SSW 15.0 mph 24.2 mph 0.11 in Rain Rain
11:55 AM 70.9 °F 67.8 °F 90% 29.91 in 5.0 mi SW 13.8 mph 21.9 mph 0.17 in Rain Heavy Rain
12:15 PM 68.4 °F 65.7 °F 91% 29.91 in 2.5 mi West 4.6 mph - 0.12 in Rain Heavy Rain
12:35 PM 67.1 °F 65.1 °F 93% 29.91 in 4.0 mi WNW 3.5 mph - 0.22 in Rain Rain
12:55 PM 67.3 °F 65.3 °F 93% 29.90 in 7.0 mi West 5.8 mph - 0.26 in Rain Heavy Rain
1:15 PM 67.1 °F 65.3 °F 94% 29.90 in 2.5 mi SSW 8.1 mph - 0.17 in Rain Heavy Rain
1:35 PM 67.1 °F 65.3 °F 94% 29.91 in 2.0 mi SSW 6.9 mph - 0.39 in Rain Heavy Rain
1:55 PM 67.3 °F 65.5 °F 94% 29.90 in 3.0 mi SW 6.9 mph - 0.58 in Rain Rain
2:15 PM 67.3 °F 65.7 °F 95% 29.90 in 7.0 mi South 6.9 mph - 0.04 in Rain Rain
2:35 PM 67.8 °F 66.2 °F 95% 29.89 in 10.0 mi SSW 4.6 mph - 0.05 in Rain Rain
2:55 PM 68.5 °F 66.6 °F 93% 29.89 in 10.0 mi SSW 5.8 mph - 0.05 in   Light Drizzle
3:15 PM 68.0 °F 66.2 °F 94% 29.89 in 10.0 mi SSW 4.6 mph - N/A Rain Rain
3:35 PM 68.0 °F 66.2 °F 94% 29.90 in 10.0 mi SSW 4.6 mph - 0.01 in Rain Rain
3:55 PM 68.4 °F 66.6 °F 94% 29.89 in 10.0 mi Calm Calm - 0.01 in   Mostly Cloudy
4:15 PM 68.4 °F 66.6 °F 94% 29.89 in 10.0 mi SW 3.5 mph - N/A   Mostly Cloudy
4:35 PM 68.9 °F 67.1 °F 94% 29.89 in 10.0 mi South 3.5 mph - N/A   Mostly Cloudy
4:55 PM 68.9 °F 67.1 °F 94% 29.88 in 10.0 mi Calm Calm - N/A   Mostly Cloudy
5:15 PM 68.9 °F 67.1 °F 94% 29.89 in 10.0 mi Calm Calm - N/A   Mostly Cloudy
5:35 PM 69.1 °F 67.1 °F 93% 29.89 in 10.0 mi Calm Calm - N/A   Mostly Cloudy
5:55 PM 69.1 °F 67.1 °F 93% 29.90 in 10.0 mi Calm Calm - N/A   Overcast
6:15 PM 69.3 °F 67.1 °F 93% 29.91 in 10.0 mi Calm Calm - N/A   Overcast
6:35 PM 67.8 °F 65.7 °F 93% 29.92 in 10.0 mi North 4.6 mph - N/A   Overcast
6:55 PM 67.3 °F 63.9 °F 89% 29.92 in 10.0 mi Calm Calm - N/A   Overcast
7:15 PM 66.7 °F 64.0 °F 91% 29.93 in 10.0 mi Calm Calm - N/A   Light Drizzle
7:35 PM 66.6 °F 64.4 °F 93% 29.94 in 10.0 mi Calm Calm - N/A   Light Drizzle
7:55 PM 66.4 °F 64.4 °F 93% 29.94 in 10.0 mi Calm Calm - N/A   Overcast
8:15 PM 66.2 °F 64.0 °F 93% 29.94 in 10.0 mi Calm Calm - N/A   Overcast
8:35 PM 66.2 °F 63.3 °F 90% 29.95 in 10.0 mi Calm Calm - N/A   Overcast
8:55 PM 65.8 °F 61.9 °F 87% 29.97 in 10.0 mi North 3.5 mph - N/A   Overcast
9:15 PM 65.5 °F 61.0 °F 85% 29.97 in 10.0 mi North 3.5 mph - N/A   Overcast
9:35 PM 65.3 °F 60.8 °F 85% 29.98 in 10.0 mi Calm Calm - N/A   Overcast
9:55 PM 64.8 °F 60.8 °F 87% 29.98 in 10.0 mi North 3.5 mph - N/A   Overcast
10:15 PM 64.8 °F 59.2 °F 82% 29.99 in 10.0 mi NNW 5.8 mph - N/A   Overcast
10:35 PM 64.4 °F 59.0 °F 83% 30.00 in 10.0 mi NNW 4.6 mph - N/A   Overcast
10:55 PM 64.4 °F 58.1 °F 80% 30.00 in 10.0 mi NNW 5.8 mph - N/A   Overcast
11:15 PM 64.0 °F 56.7 °F 77% 30.02 in 10.0 mi NNW 5.8 mph - N/A   Overcast
11:35 PM 63.5 °F 56.3 °F 77% 30.02 in 10.0 mi North 5.8 mph - N/A   Overcast
11:55 PM 62.8 °F 55.0 °F 76% 30.03 in 10.0 mi NNW 8.1 mph - N/A   Overcast